Terminal Aerodrome Forecast
Issued by NWS Wakefield, VA

Home | Current Version | Previous Version | Text Only | Print | Product List | Glossary On
Versions: 1 2 3 4 5 6 7 8 9 10 11 12 13 14 15 16 17 18 19 20 21 22
000
FTUS41 KAKQ 041315 AAA
TAFSBY
TAF AMD
KSBY 041315Z 0413/0512 07005KT 4SM BR SCT050 SCT200
     FM041345 07008KT P6SM SCT040
     FM050000 07008KT P6SM BKN050
     FM050600 04008KT 4SM BR OVC020=

USA.gov is the U.S. government's official web portal to all federal, state and local government web resources and services.